Tracking 19559 objects as of 26-Mar-2019
HD Live streaming from Space Station
objects crossing your sky now

COSMOS 2447 (GLONASS)

Track COSMOS 2447 (GLONASS) now!
COSMOS 2447 (GLONASS) is classified as:


NORAD ID: 33466
Int'l Code: 2008-067A
Perigee: 19,113.8 km
Apogee: 19,159.4 km
Inclination: 64.0 °
Period: 675.7 minutes
Semi major axis: 25507 km
RCS: 3.1623 m2 (large)
Launch date: December 25, 2008
Source: Commonwealth of Independent States (former USSR) (CIS)
Launch site: TYURATAM MISSILE AND SPACE COMPLEX (TTMTR)

This is satellite part of Glonass family.
aabbcc
Your satellite tracking list
Your tracking list is empty




NASA's NSSDC Master Catalog

Two Line Element Set (TLE):
1 33466U 08067A   19084.86446145 -.00000009 +00000-0 +00000-0 0  9993
2 33466 063.9661 160.6190 0008930 259.3151 137.4131 02.13107365079705
Source of the keplerian elements: AFSPC